1498921200.28,7088,17.56,73656.5,5.71,-10.09,-11.23,0,*40
1498921201.48,7089,17.56,73656.3,5.67,-9.93,-11.81,0,*75
1498921202.7,7090,17.56,73656.3,5.69,-9.75,-11.77,0,*72
1498921203.91,7091,17.63,73658.3,5.67,-9.79,-12.83,0,*79
1498921205.16,7092,17.56,73656.3,5.67,-10.71,-13.97,0,*4E
1498921206.4,7093,17.56,73658.3,5.63,-11.59,-14.83,0,*42
1498921207.62,7094,17.56,73658.5,5.61,-12.03,-15.29,0,*4A
1498921208.86,7095,17.56,73658.3,5.61,-12.43,-15.35,0,*42
1498921210.1,7096,17.56,73656.0,5.61,-13.11,-15.89,0,*40
1498921211.37,7097,17.56,73656.8,5.57,-14.05,-16.13,0,*46
1498921212.61,7098,17.56,73656.0,5.57,-15.07,-16.13,0,*4A
1498921213.8,7099,17.56,73658.0,5.59,-15.75,-15.67,0,*40
1498921215.04,7100,17.56,73658.0,5.57,-16.27,-15.11,0,*4A
1498921216.24,7101,17.56,73658.8,5.53,-16.59,-14.65,0,*44
1498921217.49,7102,17.56,73662.3,5.57,-17.17,-14.65,0,*48
1498921218.71,7103,17.56,73662.0,5.57,-18.17,-14.89,0,*44
1498921219.95,7104,17.56,73656.8,5.57,-18.93,-15.07,0,*48
1498921221.19,7105,17.63,73656.8,5.51,-20.09,-15.43,0,*47
1498921222.42,7106,17.63,73656.8,5.45,-20.99,-15.53,0,*49
1498921223.61,7107,17.63,73656.5,5.45,-21.13,-15.15,0,*49
1498921224.88,7108,17.63,73654.0,5.43,-21.87,-15.21,0,*4A
1498921226.07,7109,17.56,73652.8,5.41,-21.39,-14.23,0,*4F
1498921227.32,7110,17.56,73654.3,5.37,-21.53,-13.87,0,*43
1498921228.59,7111,17.56,73654.3,5.35,-21.87,-13.83,0,*4D
1498921229.84,7112,17.56,73654.0,5.35,-20.69,-12.35,0,*43
1498921231.05,7113,17.56,73654.5,5.33,-20.69,-12.11,0,*42
1498921232.27,7114,17.56,73652.5,5.29,-20.25,-11.55,0,*45
1498921233.49,7115,17.56,73654.5,5.29,-19.37,-10.63,0,*49
1498921234.71,7116,17.56,73652.5,5.29,-18.89,-10.05,0,*4E
1498921235.95,7117,17.56,73650.3,5.25,-18.35,-9.45,0,*78
1498921237.17,7118,17.56,73656.5,5.25,-17.59,-8.89,0,*73
1498921238.38,7119,17.56,73656.8,5.25,-17.41,-8.59,0,*76
1498921239.62,7120,17.56,73656.3,5.25,-17.07,-8.51,0,*76
1498921240.8,7121,17.56,73656.5,5.23,-16.97,-8.75,0,*7F
1498921241.99,7122,17.56,73656.0,5.23,-16.37,-8.37,0,*70
1498921243.16,7123,17.56,73656.8,5.23,-15.99,-8.33,0,*72
1498921244.4,7124,17.56,73656.5,5.21,-15.39,-7.87,0,*7D
1498921245.61,7125,17.56,73652.3,5.21,-15.07,-7.87,0,*71
1498921246.83,7126,17.56,73658.3,5.21,-14.65,-7.95,0,*74
1498921248.05,7127,17.56,73652.5,5.19,-14.29,-7.91,0,*72
1498921249.29,7128,17.56,73654.8,5.19,-13.87,-7.91,0,*7E
1498921250.48,7129,17.56,73650.0,5.19,-14.23,-8.41,0,*74
1498921251.72,7130,17.56,73648.0,5.17,-13.51,-8.03,0,*76
1498921252.94,7131,17.56,73648.3,5.17,-12.43,-7.11,0,*79
1498921254.15,7132,17.56,73652.0,5.15,-11.85,-6.85,0,*7D
1498921255.36,7133,17.63,73654.8,5.15,-11.37,-6.73,0,*7C
1498921256.63,7134,17.56,73654.5,5.17,-11.29,-6.93,0,*78
1498921257.87,7135,17.56,73656.0,5.17,-11.07,-7.11,0,*7E
1498921259.11,7136,17.56,73658.8,5.15,-11.07,-7.39,0,*75
1498921260.37,7137,17.56,73654.8,5.13,-10.75,-7.39,0,*76
1498921261.63,7138,17.56,73656.5,5.13,-10.75,-7.65,0,*70
1498921262.82,7139,17.56,73658.8,5.11,-10.53,-7.83,0,*7F
1498921264.06,7140,17.56,73654.3,5.13,-10.49,-8.07,0,*7B
1498921265.24,7141,17.63,73656.5,5.11,-10.31,-8.25,0,*77
1498921266.41,7142,17.56,73652.5,5.11,-9.89,-8.21,0,*4B
1498921267.6,7143,17.56,73650.0,5.11,-9.71,-8.21,0,*4D
1498921268.8,7144,17.63,73652.3,5.11,-9.61,-8.25,0,*4F
1498921270.0,7145,17.56,73652.0,5.11,-9.61,-8.37,0,*4D
1498921271.18,7146,17.56,73648.3,5.11,-9.71,-8.63,0,*4E
1498921272.39,7147,17.56,73650.0,5.09,-9.79,-8.85,0,*46
1498921273.6,7148,17.56,73648.3,5.09,-10.01,-9.19,0,*7A
1498921274.84,7149,17.56,73648.5,5.09,-10.15,-9.41,0,*73
1498921276.03,7150,17.56,73652.5,5.07,-10.31,-9.89,0,*77
1498921277.21,7151,17.56,73652.8,5.07,-10.05,-9.75,0,*72
1498921278.42,7152,17.56,73652.5,5.07,-9.75,-9.61,0,*4B
1498921279.62,7153,17.56,73652.8,5.07,-10.27,-10.15,0,*4E
1498921280.83,7154,17.63,73658.3,5.07,-10.15,-10.01,0,*4D
1498921282.02,7155,17.56,73654.0,5.07,-10.19,-10.05,0,*44
1498921283.22,7156,17.56,73654.3,5.07,-10.49,-10.45,0,*46
1498921284.45,7157,17.63,73656.8,5.07,-10.71,-10.35,0,*4B
1498921285.64,7158,17.56,73652.5,5.03,-10.89,-10.49,0,*4C
1498921286.87,7159,17.56,73652.8,5.03,-11.23,-10.63,0,*44
1498921288.12,7160,17.56,73656.0,5.03,-11.51,-10.67,0,*4F
1498921289.37,7161,17.56,73652.3,5.03,-11.63,-10.63,0,*4B
1498921290.6,7162,17.56,73652.8,5.03,-11.59,-10.19,0,*4C
1498921291.84,7163,17.56,73652.5,5.01,-11.63,-10.05,0,*4B
1498921293.11,7164,17.63,73656.3,5.01,-11.63,-9.83,0,*7A
1498921294.35,7165,17.56,73652.0,4.99,-11.73,-9.57,0,*73
1498921295.61,7166,17.56,73652.5,4.97,-11.97,-9.53,0,*70
1498921296.83,7167,17.56,73650.8,4.99,-11.29,-8.67,0,*7C
1498921298.06,7168,17.63,73654.8,4.97,-11.33,-8.67,0,*76
1498921299.27,7169,17.56,73654.5,4.99,-11.77,-8.63,0,*7D
1498921300.48,7170,17.56,73652.3,4.99,-11.19,-7.99,0,*77
1498921301.7,7171,17.56,73648.0,4.99,-10.97,-7.69,0,*7E
1498921302.94,7172,17.56,73654.0,4.97,-10.89,-7.61,0,*74
1498921304.18,7173,17.56,73648.8,4.97,-10.75,-7.19,0,*79
1498921305.38,7174,17.56,73654.0,4.99,-10.27,-7.15,0,*7B
1498921306.59,7175,17.63,73652.0,4.97,-9.31,-6.89,0,*4F
1498921307.82,7176,17.63,73654.0,4.97,-8.51,-6.55,0,*4A
1498921309.06,7177,17.56,73650.5,4.97,-6.55,-5.19,0,*4A
1498921310.29,7178,17.56,73650.5,4.97,-4.57,-3.55,0,*4B
1498921311.52,7179,17.56,73648.5,4.97,-3.71,-3.03,0,*4A
1498921312.73,7180,17.63,73648.5,4.99,-2.99,-2.63,0,*42
1498921313.94,7181,17.56,73644.8,4.97,-3.31,-2.91,0,*43
1498921315.14,7182,17.63,73646.8,4.99,-4.13,-3.55,0,*40
1498921316.37,7183,17.56,73642.8,4.97,-4.81,-3.95,0,*48
1498921317.58,7184,17.56,73642.8,4.99,-4.65,-3.51,0,*43
1498921318.83,7185,17.56,73636.8,5.01,-5.19,-3.59,0,*40
1498921320.06,7186,17.56,73642.0,4.99,-5.31,-3.63,0,*40
1498921321.27,7187,17.63,73644.8,5.01,-4.53,-2.95,0,*4C
1498921322.51,7188,17.56,73644.5,5.01,-4.13,-2.67,0,*4A
1498921323.7,7189,17.56,73644.5,5.03,-3.83,-2.43,0,*41
1498921324.96,7190,17.56,73642.5,5.01,-3.43,-2.07,0,*47
1498921326.17,7191,17.56,73648.0,5.01,-3.31,-2.31,0,*46
1498921327.43,7192,17.56,73648.0,5.01,-2.59,-1.83,0,*40
1498921328.64,7193,17.56,73650.0,5.03,-2.47,-1.79,0,*49
1498921329.87,7194,17.56,73652.3,5.01,-2.19,-1.47,0,*4A
1498921331.09,7195,17.56,73652.5,4.99,-2.11,-1.71,0,*46
1498921332.28,7196,17.56,73656.3,4.99,-4.05,-2.99,0,*43
1498921333.52,7197,17.56,73662.0,4.97,-5.23,-3.27,0,*4D
1498921334.73,7198,17.56,73656.0,4.97,-5.97,-3.31,0,*4A
1498921335.92,7199,17.56,73654.3,4.95,-6.43,-3.27,0,*44
1498921337.12,7200,17.63,73660.8,4.97,-6.39,-3.07,0,*4A
1498921338.33,7201,17.56,73658.8,4.97,-6.55,-3.03,0,*45
1498921339.56,7202,17.56,73662.0,4.97,-6.63,-2.79,0,*4F
1498921340.74,7203,17.56,73660.5,4.95,-7.49,-3.19,0,*42
1498921341.99,7204,17.56,73658.3,4.93,-8.07,-3.55,0,*4E
1498921343.22,7205,17.56,73658.0,4.93,-8.03,-3.23,0,*4A
1498921344.46,7206,17.56,73658.3,4.93,-7.73,-2.87,0,*4E
1498921345.7,7207,17.56,73656.5,4.91,-7.95,-2.95,0,*46
1498921346.9,7208,17.56,73652.3,4.91,-8.29,-2.95,0,*41
1498921348.17,7209,17.56,73654.8,4.91,-8.07,-2.67,0,*41
1498921349.4,7210,17.56,73652.5,4.91,-7.53,-2.07,0,*41
1498921350.63,7211,17.56,73652.3,4.89,-7.65,-1.95,0,*44
1498921351.86,7212,17.56,73652.8,4.89,-7.43,-1.83,0,*44
1498921353.08,7213,17.56,73654.8,4.89,-7.43,-1.95,0,*42
1498921354.28,7214,17.56,73652.3,4.89,-7.27,-1.59,0,*47
1498921355.51,7215,17.56,73656.8,4.89,-7.65,-1.95,0,*40
1498921356.73,7216,17.56,73658.3,4.89,-7.69,-1.83,0,*48
1498921357.94,7217,17.63,73654.0,4.89,-7.83,-1.83,0,*4D
1498921359.15,7218,17.56,73652.5,4.85,-8.17,-2.11,0,*44
1498921360.33,7219,17.56,73650.3,4.85,-7.49,-1.75,0,*40
1498921361.56,7220,17.56,73648.5,4.85,-7.69,-1.87,0,*45
1498921362.77,7221,17.56,73650.8,4.85,-7.99,-2.19,0,*4F
1498921363.98,7222,17.56,73644.5,4.81,-8.03,-2.31,0,*4E
1498921365.21,7223,17.56,73652.5,4.79,-7.39,-2.31,0,*4E
1498921366.45,7224,17.56,73650.0,4.79,-6.55,-1.91,0,*4B
1498921367.68,7225,17.56,73644.5,4.79,-6.47,-1.47,0,*42
1498921368.87,7226,17.56,73650.5,4.77,-6.77,-1.59,0,*43
1498921370.08,7227,17.56,73654.8,4.79,-6.85,-1.71,0,*4B
1498921371.3,7228,17.63,73654.8,4.77,-6.77,-1.99,0,*41
1498921372.51,7229,17.56,73654.5,4.75,-7.49,-2.39,0,*47
1498921373.74,7230,17.63,73654.8,4.75,-7.43,-2.39,0,*45
1498921374.97,7231,17.56,73648.0,4.75,-7.31,-2.43,0,*4C
1498921376.16,7232,17.56,73646.8,4.73,-7.15,-2.39,0,*42
1498921377.33,7233,17.56,73650.5,4.73,-7.49,-2.79,0,*4E
1498921378.54,7234,17.56,73648.0,4.73,-7.49,-2.75,0,*45
1498921379.74,7235,17.56,73642.5,4.69,-7.39,-2.91,0,*42
1498921380.98,7236,17.56,73648.5,4.67,-7.11,-2.63,0,*48
1498921382.21,7237,17.63,73650.3,4.67,-6.89,-2.59,0,*40
1498921383.4,7238,17.63,73648.0,4.65,-6.55,-2.35,0,*46
1498921384.58,7239,17.56,73646.5,4.65,-6.51,-2.39,0,*4F
1498921385.81,7240,17.56,73648.8,4.63,-6.27,-2.27,0,*49
1498921387.05,7241,17.56,73650.8,4.63,-6.01,-2.11,0,*49
1498921388.26,7242,17.56,73648.0,4.63,-6.13,-2.27,0,*4C
1498921389.46,7243,17.56,73650.8,4.63,-6.13,-2.27,0,*4D
1498921390.67,7244,17.56,73646.0,4.63,-6.01,-2.27,0,*49
1498921391.89,7245,17.63,73652.5,4.63,-5.97,-2.23,0,*40
1498921393.14,7246,17.56,73650.0,4.63,-5.73,-2.11,0,*48
1498921394.36,7247,17.63,73650.5,4.61,-5.65,-2.15,0,*48
1498921395.57,7248,17.56,73652.8,4.61,-5.51,-2.03,0,*47
1498921396.77,7249,17.56,73648.0,4.57,-5.47,-1.95,0,*48
1498921397.98,7250,17.56,73652.8,4.57,-5.39,-1.95,0,*49
1498921399.19,7251,17.56,73648.0,4.57,-5.15,-1.79,0,*44
1498921400.36,7252,17.56,73648.8,4.57,-4.99,-1.51,0,*48
1498921401.6,7253,17.56,73648.3,4.57,-4.89,-1.43,0,*4B
1498921402.85,7254,17.56,73654.5,4.55,-4.89,-1.43,0,*4E
1498921404.03,7255,17.56,73652.8,4.53,-4.99,-1.51,0,*4B
1498921405.26,7256,17.63,73656.8,4.55,-4.73,-1.25,0,*49
1498921406.48,7257,17.56,73654.8,4.55,-4.65,-1.13,0,*4A
1498921407.72,7258,17.56,73652.5,4.53,-4.89,-1.35,0,*45
1498921408.95,7259,17.56,73652.3,4.55,-4.73,-1.17,0,*47
1498921410.17,7260,17.56,73650.5,4.53,-4.69,-1.13,0,*44
1498921411.35,7261,17.56,73652.5,4.53,-4.65,-1.17,0,*4D
1498921412.58,7262,17.56,73652.5,4.51,-4.53,-1.05,0,*4A
1498921413.82,7263,17.56,73648.8,4.51,-4.57,-1.05,0,*4F
1498921415.01,7264,17.56,73654.8,4.49,-4.49,-0.97,0,*74
1498921416.2,7265,17.56,73650.0,4.49,-4.25,-0.81,0,*78
1498921417.4,7266,17.56,73640.0,4.49,-4.25,-0.89,0,*73
1498921418.59,7267,17.56,73646.5,4.49,-3.91,-0.57,0,*79
1498921419.78,7268,17.56,73652.0,4.49,-4.13,-0.77,0,*79
1498921420.96,7269,17.56,73658.3,4.45,-4.09,-0.69,0,*70
1498921422.17,7270,17.56,73652.0,4.47,-3.91,-0.69,0,*7C
1498921423.38,7271,17.56,73652.8,4.47,-3.83,-0.69,0,*7E
1498921424.57,7272,17.56,73648.5,4.45,-3.83,-0.69,0,*7F
1498921425.78,7273,17.56,73650.5,4.45,-3.59,-0.57,0,*74
1498921426.99,7274,17.56,73648.8,4.45,-3.51,-0.49,0,*74
1498921428.17,7275,17.56,73650.8,4.45,-3.31,-0.37,0,*7A
1498921429.36,7276,17.56,73648.8,4.41,-3.15,-0.37,0,*7B
1498921430.54,7277,17.56,73648.0,4.41,-3.11,-0.37,0,*7E
1498921431.73,7278,17.56,73654.0,4.41,-2.99,-0.41,0,*71
1498921432.9,7279,17.56,73650.8,4.41,-2.79,-0.29,0,*70
1498921434.11,7280,17.56,73648.8,4.41,-2.63,-0.19,0,*7E
1498921435.34,7281,17.56,73654.8,4.41,-2.51,-0.27,0,*73
1498921436.52,7282,17.56,73654.3,4.41,-2.35,-0.15,0,*73
1498921437.7,7283,17.56,73654.5,4.41,-2.23,-0.11,0,*71
1498921438.9,7284,17.56,73648.3,4.41,-2.11,-0.03,0,*44
1498921440.1,7285,17.56,73648.3,4.41,-2.03,-0.03,0,*46
1498921441.32,7286,17.56,73648.3,4.41,-1.99,-0.15,0,*72
1498921442.55,7287,17.56,73650.0,4.39,-1.95,-0.15,0,*70
1498921443.74,7288,17.56,73652.5,4.35,-1.79,-0.07,0,*42
1498921444.97,7289,17.56,73650.0,4.39,-1.83,-0.19,0,*75
1498921446.18,7290,17.56,73650.8,4.35,-1.67,-0.15,0,*77
1498921447.38,7291,17.56,73650.5,4.35,-1.33,0.05,0,*6B
1498921448.62,7292,17.56,73648.3,4.35,-1.09,0.33,0,*54
1498921449.87,7293,17.56,73652.3,4.39,-1.01,0.29,0,*5A
1498921451.07,7294,17.56,73652.5,4.39,-1.17,0.09,0,*68
1498921452.27,7295,17.56,73654.5,4.35,-1.21,0.05,0,*6C
1498921453.49,7296,17.56,73650.5,4.35,-1.01,-0.03,0,*46
1498921454.71,7297,17.56,73654.0,4.35,-0.69,0.29,0,*6D
1498921455.93,7298,17.56,73650.8,4.35,-0.69,0.21,0,*6A
1498921457.15,7299,17.56,73652.0,4.35,-0.65,0.29,0,*6F
1498921458.36,7300,17.56,73652.3,4.35,-0.41,0.41,0,*66
1498921459.58,7301,17.56,73654.8,4.35,-0.41,0.33,0,*62
1498921460.79,7302,17.56,73654.0,4.39,-0.29,0.29,0,*68
1498921462.01,7303,17.56,73654.0,4.33,-0.27,0.25,0,*61
1498921463.2,7304,17.56,73654.0,4.33,-0.19,0.37,0,*68
1498921464.42,7305,17.56,73656.3,4.33,-0.23,0.25,0,*63
1498921465.63,7306,17.56,73654.5,4.35,-0.19,0.17,0,*6E
1498921466.85,7307,17.56,73652.8,4.35,-0.23,0.09,0,*59
1498921468.05,7308,17.56,73656.8,4.35,-0.45,-0.19,0,*4A
1498921469.23,7309,17.56,73652.5,4.33,-0.45,-0.19,0,*4D
1498921470.42,7310,17.56,73654.3,4.33,-0.23,0.01,0,*51
1498921471.65,7311,17.56,73654.3,4.31,-0.23,-0.11,0,*4E
1498921472.82,7312,17.56,73652.3,4.33,-0.19,0.01,0,*5A
1498921474.01,7313,17.56,73654.0,4.31,-0.11,0.01,0,*51
1498921475.21,7314,17.56,73654.0,4.31,-0.11,0.01,0,*56
1498921476.4,7315,17.56,73654.5,4.31,-0.07,0.01,0,*60
1498921477.61,7316,17.56,73650.5,4.31,0.05,0.13,0,*7F
1498921478.82,7317,17.56,73654.3,4.31,0.05,0.13,0,*7E
1498921480.0,7318,17.56,73648.8,4.29,-0.03,-0.11,0,*7C
1498921481.19,7319,17.56,73650.0,4.27,-0.15,-0.27,0,*41
1498921482.35,7320,17.56,73652.3,4.29,0.01,-0.11,0,*58
1498921483.54,7321,17.56,73652.5,4.29,0.21,0.01,0,*77
1498921484.74,7322,17.56,73654.0,4.29,0.33,0.13,0,*44
1498921485.92,7323,17.56,73654.3,4.27,0.29,0.09,0,*7B
1498921487.1,7324,17.56,73652.5,4.29,0.33,0.09,0,*79
1498921488.28,7325,17.56,73652.3,4.27,0.33,0.09,0,*76
1498921489.49,7326,17.56,73652.0,4.29,0.25,0.13,0,*47
1498921490.7,7327,17.56,73654.3,4.29,0.37,0.21,0,*44
1498921491.88,7328,17.56,73652.0,4.29,0.43,0.13,0,*49
1498921493.09,7329,17.56,73656.0,4.29,0.47,0.25,0,*49
1498921494.28,7330,17.56,73656.8,4.29,0.25,-0.03,0,*5C
1498921495.46,7331,17.56,73656.3,4.29,0.01,-0.23,0,*59
1498921496.65,7332,17.56,73658.0,4.29,0.25,0.01,0,*71
1498921497.85,7333,17.56,73654.0,4.31,0.25,0.01,0,*79
1498921499.04,7334,17.56,73656.5,4.27,-0.03,-0.27,0,*79
1498921500.23,7335,17.56,73658.0,4.29,0.33,-0.03,0,*5E
1498921501.44,7336,17.56,73658.8,4.29,0.47,0.13,0,*42
1498921502.65,7337,17.56,73652.8,4.29,0.47,0.13,0,*43
1498921503.8,7338,17.56,73654.3,4.29,0.43,0.01,0,*7B
1498921504.98,7339,17.56,73658.5,4.29,0.33,0.01,0,*7D
1498921506.16,7340,17.56,73652.3,4.29,0.43,0.13,0,*47
1498921507.4,7341,17.56,73658.8,4.31,0.55,0.17,0,*4C
1498921508.61,7342,17.56,73654.5,4.29,0.51,0.25,0,*43
1498921509.83,7343,17.56,73658.5,4.29,0.47,0.21,0,*41
1498921511.01,7344,17.56,73652.8,4.29,0.33,0.01,0,*77
1498921512.18,7345,17.56,73652.3,4.27,0.33,0.05,0,*7C
1498921513.36,7346,17.56,73654.3,4.27,0.41,0.09,0,*76
1498921514.57,7347,17.56,73658.0,4.27,0.47,0.21,0,*4B
1498921515.78,7348,17.56,73656.8,4.29,0.51,0.37,0,*4A
1498921517.0,7349,17.56,73658.5,4.29,0.71,0.47,0,*4E
1498921518.2,7350,17.56,73652.0,4.27,0.59,0.33,0,*41
1498921519.4,7351,17.56,73650.8,4.27,0.55,0.33,0,*4C
1498921520.61,7352,17.56,73652.8,4.29,0.71,0.37,0,*43
1498921521.83,7353,17.56,73652.0,4.29,0.75,0.51,0,*46
1498921523.03,7354,17.56,73654.5,4.29,0.59,0.33,0,*4B
1498921524.25,7355,17.56,73658.8,4.29,0.47,0.21,0,*46
1498921525.47,7356,17.56,73656.3,4.29,0.41,0.21,0,*43
1498921526.68,7357,17.56,73660.0,4.29,0.51,0.21,0,*43
1498921527.89,7358,17.56,73656.5,4.29,0.59,0.33,0,*47
1498921529.11,7359,17.56,73656.8,4.29,0.47,0.21,0,*4A
1498921530.32,7360,17.56,73658.0,4.29,0.47,0.21,0,*40
1498921531.49,7361,17.56,73658.8,4.27,0.05,-0.15,0,*53
1498921532.67,7362,17.56,73654.0,4.29,0.33,-0.03,0,*5C
1498921533.88,7363,17.56,73654.0,4.27,0.47,0.17,0,*48
1498921535.06,7364,17.56,73652.3,4.29,0.47,0.09,0,*7E
1498921536.24,7365,17.56,73652.8,4.27,0.33,0.05,0,*7E
1498921537.42,7366,17.56,73654.8,4.27,0.29,-0.07,0,*59
1498921538.6,7367,17.56,73648.8,4.29,0.43,0.13,0,*42
1498921539.81,7368,17.56,73648.3,4.29,0.51,0.21,0,*4F
1498921541.02,7369,17.56,73650.0,4.27,0.47,0.17,0,*42
1498921542.23,7370,17.56,73648.8,4.27,0.55,0.21,0,*4C
1498921543.4,7371,17.56,73648.8,4.27,0.43,0.17,0,*4F
1498921544.6,7372,17.56,73650.5,4.27,0.47,0.17,0,*48
1498921545.75,7373,17.56,73648.8,4.27,0.43,0.09,0,*72
1498921546.9,7374,17.56,73654.0,4.27,0.43,0.09,0,*75
1498921548.1,7375,17.56,73654.8,4.27,0.47,0.21,0,*4A
1498921549.33,7376,17.56,73648.8,4.25,0.59,0.33,0,*47
1498921550.53,7377,17.56,73654.0,4.25,0.59,0.43,0,*41
1498921551.77,7378,17.56,73652.8,4.25,0.71,0.55,0,*43
1498921553.01,7379,17.56,73652.5,4.25,0.79,0.47,0,*49
1498921554.21,7380,17.56,73652.5,4.25,0.43,0.29,0,*4E
1498921555.44,7381,17.56,73652.3,4.25,0.47,0.29,0,*4B
1498921556.67,7382,17.56,73654.5,4.25,0.55,0.29,0,*4B
1498921557.89,7383,17.56,73652.8,4.25,0.67,0.41,0,*45
1498921559.09,7384,17.56,73650.3,4.25,0.67,0.43,0,*40
1498921560.3,7385,17.56,73652.5,4.25,0.71,0.43,0,*46
1498921561.5,7386,17.56,73652.5,4.25,0.67,0.43,0,*42
1498921562.71,7387,17.56,73656.3,4.25,0.71,0.43,0,*44
1498921563.95,7388,17.56,73652.8,4.25,0.79,0.55,0,*44
1498921565.19,7389,17.56,73656.5,4.25,0.79,0.59,0,*49
1498921566.43,7390,17.56,73654.8,4.25,0.79,0.59,0,*41
1498921567.66,7391,17.56,73658.8,4.25,0.79,0.67,0,*4D
1498921568.86,7392,17.56,73654.0,4.27,0.55,0.33,0,*43
1498921570.03,7393,17.56,73652.3,4.27,-0.03,-0.19,0,*79
1498921571.2,7394,17.56,73656.5,4.23,-0.29,-0.45,0,*4B
1498921572.36,7395,17.56,73654.3,4.23,0.05,-0.19,0,*50
1498921573.55,7396,17.56,73658.0,4.23,0.13,-0.11,0,*6C
1498921574.74,7397,17.56,73652.8,4.23,0.17,-0.11,0,*69
1498921575.95,7398,17.56,73648.0,4.25,-0.19,-0.41,0,*46
1498921577.11,7399,17.56,73644.8,4.19,0.09,-0.15,0,*55
1498921578.29,7400,17.56,73648.0,4.23,0.37,0.05,0,*7A
1498921579.47,7401,17.56,73648.3,4.23,0.17,0.01,0,*7D
1498921580.64,7402,17.56,73648.0,4.23,0.17,0.01,0,*7E
1498921581.85,7403,17.56,73650.0,4.21,0.29,0.05,0,*74
1498921583.06,7404,17.56,73646.8,4.21,0.29,0.05,0,*73
1498921584.24,7405,17.56,73648.0,4.19,0.25,0.01,0,*71
1498921585.43,7406,17.56,73648.8,4.19,0.13,-0.11,0,*6B
1498921586.59,7407,17.56,73646.5,4.19,0.09,-0.15,0,*55
1498921587.8,7408,17.56,73644.3,4.17,0.21,0.01,0,*76
1498921589.04,7409,17.56,73642.8,4.17,0.37,0.21,0,*42
1498921590.24,7410,17.56,73646.5,4.13,-0.07,-0.37,0,*7A
1498921591.44,7411,17.56,73638.0,4.17,-0.15,-0.41,0,*4D
1498921592.65,7412,17.56,73640.3,4.13,-0.19,-0.37,0,*47
1498921593.87,7413,17.56,73642.0,4.17,0.13,-0.11,0,*61
1498921595.1,7414,17.56,73638.8,4.13,0.37,0.17,0,*4F
1498921596.29,7415,17.56,73640.0,4.13,0.09,-0.19,0,*50
1498921597.48,7416,17.56,73642.0,4.13,-0.03,-0.29,0,*77
1498921598.64,7417,17.56,73644.5,4.11,0.05,-0.29,0,*5F
1498921599.85,7418,17.56,73644.3,4.11,0.41,0.13,0,*44
1498921601.03,7419,17.56,73644.0,4.11,0.33,0.05,0,*77
1498921602.21,7420,17.56,73644.8,4.11,0.33,0.01,0,*79
1498921603.39,7421,17.56,73648.3,4.11,0.41,0.05,0,*79
1498921604.61,7422,17.56,73654.0,4.11,0.55,0.29,0,*41
1498921605.84,7423,17.56,73654.5,4.09,0.51,0.25,0,*41
1498921607.05,7424,17.56,73650.3,4.13,0.33,-0.03,0,*50
1498921608.25,7425,17.56,73650.8,4.11,0.41,0.17,0,*4E
1498921609.49,7426,17.56,73650.8,4.09,0.55,0.17,0,*41
1498921610.67,7427,17.56,73652.8,4.09,0.43,0.05,0,*74
1498921611.88,7428,17.56,73654.3,4.09,0.33,-0.07,0,*53
1498921613.09,7429,17.56,73654.5,4.11,0.41,0.13,0,*46
1498921614.3,7430,17.56,73654.0,4.09,0.41,0.05,0,*70
1498921615.51,7431,17.56,73652.5,4.09,0.43,0.13,0,*44
1498921616.74,7432,17.56,73650.3,4.09,0.55,0.25,0,*45
1498921617.97,7433,17.56,73652.0,4.09,0.67,0.41,0,*47
1498921619.18,7434,17.56,73648.0,4.11,0.63,0.33,0,*48
1498921620.42,7435,17.56,73650.5,4.09,0.55,0.29,0,*4E
1498921621.62,7436,17.56,73648.0,4.11,0.67,0.29,0,*45
1498921622.85,7437,17.56,73648.5,4.09,0.63,0.33,0,*42
1498921624.09,7438,17.56,73648.8,4.09,0.55,0.25,0,*4F
1498921625.33,7439,17.56,73650.8,4.09,0.55,0.25,0,*4E
1498921626.57,7440,17.56,73650.8,4.09,0.55,0.17,0,*41
1498921627.81,7441,17.56,73646.8,4.09,0.55,0.25,0,*41
1498921629.04,7442,17.56,73654.3,4.09,0.51,0.17,0,*47
1498921630.28,7443,17.56,73652.8,4.09,0.55,0.17,0,*42
1498921631.49,7444,17.56,73652.0,4.07,0.51,0.21,0,*4A
1498921632.67,7445,17.56,73650.0,4.07,0.37,0.09,0,*71
1498921633.87,7446,17.56,73650.3,4.07,0.21,-0.11,0,*61
1498921635.07,7447,17.56,73644.5,4.07,0.25,-0.11,0,*64
1498921636.3,7448,17.56,73650.3,4.05,0.37,0.13,0,*45
1498921637.51,7449,17.56,73654.3,4.07,0.51,0.13,0,*46
1498921638.71,7450,17.56,73654.3,4.07,0.21,-0.11,0,*66
1498921639.93,7451,17.56,73650.3,4.05,0.21,-0.11,0,*65
1498921641.14,7452,17.56,73652.3,4.07,0.47,0.13,0,*4B
1498921642.35,7453,17.56,73654.3,4.07,0.41,0.13,0,*4C
1498921643.58,7454,17.56,73654.8,4.05,0.41,0.13,0,*49
1498921644.82,7455,17.56,73652.3,4.05,0.51,0.25,0,*4C
1498921646.05,7456,17.56,73652.3,4.05,0.41,0.13,0,*4B
1498921647.29,7457,17.56,73652.5,4.05,0.51,0.21,0,*4A
1498921648.53,7458,17.56,73652.0,4.05,0.51,0.25,0,*41
1498921649.76,7459,17.56,73654.5,4.05,0.51,0.25,0,*40
1498921651.0,7460,17.56,73654.3,4.05,0.47,0.13,0,*48
1498921652.23,7461,17.56,73650.0,4.05,0.47,0.13,0,*49
1498921653.45,7462,17.56,73652.8,4.05,0.47,0.09,0,*71
1498921654.68,7463,17.56,73652.0,4.05,0.41,0.13,0,*4D
1498921655.89,7464,17.56,73654.0,4.05,0.29,0.01,0,*77
1498921657.07,7465,17.56,73652.0,4.03,0.25,-0.03,0,*53
1498921658.28,7466,17.56,73652.3,4.03,0.47,0.17,0,*4C
1498921659.48,7467,17.56,73652.3,4.03,0.47,0.33,0,*4B
1498921660.69,7468,17.56,73654.0,4.03,0.47,0.17,0,*42
1498921661.93,7469,17.56,73658.3,4.01,0.51,0.21,0,*43
1498921663.17,7470,17.56,73656.0,4.01,0.51,0.21,0,*4B
1498921664.39,7471,17.56,73658.5,4.03,0.55,0.21,0,*4C
1498921665.61,7472,17.56,73656.0,4.01,0.17,-0.11,0,*65
1498921666.79,7473,17.56,73654.8,4.03,0.33,0.05,0,*78
1498921667.97,7474,17.56,73658.3,4.03,0.21,-0.07,0,*53
1498921669.16,7475,17.56,73658.3,4.03,0.41,0.09,0,*77
1498921670.37,7476,17.56,73658.5,4.01,0.43,0.21,0,*4E
1498921671.6,7477,17.56,73658.3,4.01,0.51,0.33,0,*4F
1498921672.81,7478,17.56,73656.8,4.01,0.33,0.05,0,*71
1498921674.04,7479,17.56,73652.8,4.01,0.51,0.33,0,*41
1498921675.28,7480,17.56,73658.3,4.01,0.51,0.21,0,*44
1498921676.5,7481,17.56,73656.5,3.99,0.51,0.29,0,*4B
1498921677.73,7482,17.56,73658.0,3.97,0.59,0.37,0,*41
1498921678.98,7483,17.56,73658.8,4.01,0.79,0.55,0,*4E
1498921680.2,7484,17.56,73656.8,3.99,0.79,0.55,0,*4F
1498921681.42,7485,17.56,73662.0,3.99,0.79,0.55,0,*4E
1498921682.64,7486,17.56,73662.8,3.99,0.67,0.51,0,*46
1498921683.85,7487,17.56,73658.3,3.99,0.67,0.51,0,*47
1498921685.06,7488,17.56,73660.0,3.99,0.75,0.51,0,*4B
1498921686.25,7489,17.56,73660.8,3.99,0.63,0.43,0,*4E
1498921687.47,7490,17.56,73660.5,3.99,0.91,0.75,0,*4E
1498921688.7,7491,17.56,73660.8,3.99,0.91,0.75,0,*4F
1498921689.91,7492,17.56,73660.3,3.99,0.95,0.79,0,*44
1498921691.11,7493,17.56,73660.8,3.99,1.01,0.87,0,*78
1498921692.35,7494,17.56,73662.0,3.99,1.13,0.91,0,*7B
1498921693.55,7495,17.56,73664.5,3.99,1.01,0.75,0,*73
1498921694.76,7496,17.56,73660.0,3.99,0.95,0.75,0,*4C
1498921695.98,7497,17.56,73660.5,3.99,0.95,0.79,0,*41
1498921697.17,7498,17.56,73660.0,3.99,1.01,0.79,0,*72
1498921698.4,7499,17.56,73662.0,4.01,1.01,0.87,0,*74
1498921699.63,7500,17.56,73662.3,4.01,1.13,1.01,0,*49
1498921700.84,7501,17.56,73660.3,3.99,1.13,1.01,0,*4E
1498921702.04,7502,17.56,73662.5,3.99,1.05,0.87,0,*75
1498921703.24,7503,17.56,73662.0,3.99,1.09,1.01,0,*47
1498921704.45,7504,17.56,73662.8,3.99,1.13,1.05,0,*4F
1498921705.67,7505,17.56,73660.3,4.01,1.25,1.05,0,*4D
1498921706.9,7506,17.56,73662.3,4.03,1.21,1.09,0,*44
1498921708.16,7507,17.56,73660.5,4.01,1.13,0.91,0,*76
1498921709.41,7508,17.56,73660.0,4.01,0.91,0.63,0,*4F
1498921710.63,7509,17.56,73662.5,3.99,0.91,0.63,0,*48
1498921711.87,7510,17.56,73664.5,3.97,0.87,0.63,0,*49
1498921713.1,7511,17.56,73662.3,3.99,1.13,0.87,0,*70
1498921714.31,7512,17.56,73664.0,3.99,1.13,1.05,0,*48
1498921715.51,7513,17.56,73666.8,3.99,1.25,1.05,0,*4C
1498921716.75,7514,17.56,73662.0,3.99,1.37,1.13,0,*4F
1498921717.95,7515,17.56,73664.3,3.99,1.29,1.05,0,*46
1498921719.19,7516,17.56,73662.5,3.99,1.29,1.13,0,*42
1498921720.39,7517,17.56,73662.8,3.99,1.17,1.01,0,*4D
1498921721.65,7518,17.56,73664.3,4.01,1.13,0.91,0,*78
1498921722.91,7519,17.56,73662.8,4.01,1.17,0.91,0,*7D
1498921724.16,7520,17.56,73664.5,4.01,1.17,0.91,0,*77
1498921725.4,7521,17.56,73662.3,3.99,1.13,0.87,0,*73